Cody, WY

3:43 AM MST on February 07, 2016 (GMT -0700)
Yellowstone Regional

Weather History for KCOD - November, 2013

Change the Weather History Date:

Wednesday, November 13, 2013

  Actual Average Record
Temperature  
Mean Temperature 46 °F -  
Max Temperature 57 °F 48 °F 73 °F (1933)
Min Temperature 35 °F 26 °F -24 °F (1959)
Degree Days  
Heating Degree Days 19    
Moisture  
Dew Point 27 °F    
Average Humidity 45    
Maximum Humidity 65    
Minimum Humidity 33    
Precipitation  
Precipitation 0.00 in - - ()
Sea Level Pressure  
Sea Level Pressure 30.14 in    
Wind  
Wind Speed 7 mph (West)    
Max Wind Speed 23 mph    
Max Gust Speed 33 mph    
Visibility 10 miles    
Events      
Averages and records for this station are not official NWS values.
T = Trace of Precipitation, MM = Missing Value Source: NWS Daily Summary

Daily Weather History Graph

Daily Weather History Graph

Search for Another Location

Airport or City:

Trip Planner

Search our weather history database for the weather conditions in past years. The results will help you decide how hot, cold, wet, or windy it might be!

Date:

Astronomy

Nov. 13, 2013 Rise Set
Actual Time 7:10 AM MST 4:50 PM MST
Civil Twilight 6:38 AM MST 5:21 PM MST
Nautical Twilight 6:03 AM MST 5:56 PM MST
Astronomical Twilight 5:29 AM MST 6:30 PM MST
Moon 2:47 PM MST (11/13) 2:57 AM MST (11/13)
Length of Visible Light 10h 42m
Length of Day
9h 39m
Waxing Gibbous, 85% of the Moon is Illuminated
Nov 13
Waxing Gibbous
Nov 17
Full
Nov 25
Last Quarter
Dec 2
New
Dec 9
First Quarter

Hourly Weather History & Observations

Time (MST) Temp. Windchill Dew Point Humidity Pressure Visibility Wind Dir Wind Speed Gust Speed Precip Events Conditions
12:15 AM 44.6 °F 42.2 °F 24.8 °F 46% 30.26 in 10.0 mi North 4.6 mph - N/A   Clear
12:35 AM 41.0 °F - 24.8 °F 53% 30.25 in 10.0 mi Calm Calm - N/A   Clear
12:55 AM 46.4 °F 40.7 °F 24.8 °F 43% 30.25 in 10.0 mi SW 12.7 mph - N/A   Clear
1:15 AM 48.2 °F - 24.8 °F 40% 30.24 in 10.0 mi SW 8.1 mph - N/A   Clear
1:35 AM 42.8 °F 41.1 °F 24.8 °F 49% 30.24 in 10.0 mi NNW 3.5 mph - N/A   Clear
2:15 AM 48.2 °F - 26.6 °F 43% 30.22 in 10.0 mi WSW 8.1 mph - N/A   Clear
2:55 AM 53.6 °F - 24.8 °F 33% 30.22 in 10.0 mi West 8.1 mph - N/A   Clear
3:15 AM 51.8 °F - 24.8 °F 35% 30.22 in 10.0 mi NE 3.5 mph - N/A   Clear
3:35 AM 46.4 °F 42.9 °F 24.8 °F 43% 30.22 in 10.0 mi NE 6.9 mph - N/A   Clear
3:55 AM 46.4 °F - 24.8 °F 43% 30.22 in 10.0 mi Calm Calm - N/A   Clear
4:15 AM 48.2 °F - 24.8 °F 40% 30.21 in 10.0 mi NNE 3.5 mph - N/A   Clear
4:35 AM 46.4 °F 44.3 °F 24.8 °F 43% 30.20 in 10.0 mi North 4.6 mph - N/A   Clear
4:55 AM 46.4 °F 44.3 °F 26.6 °F 46% 30.19 in 10.0 mi SSE 4.6 mph - N/A   Clear
5:15 AM 42.8 °F - 26.6 °F 53% 30.19 in 10.0 mi Calm Calm - N/A   Clear
5:35 AM 46.4 °F 45.2 °F 24.8 °F 43% 30.19 in 10.0 mi NW 3.5 mph - N/A   Clear
5:55 AM 46.4 °F - 24.8 °F 43% 30.18 in 10.0 mi Calm Calm - N/A   Clear
6:15 AM 46.4 °F 42.4 °F 24.8 °F 43% 30.18 in 10.0 mi SW 8.1 mph - N/A   Clear
6:35 AM 48.2 °F - 24.8 °F 40% 30.18 in 10.0 mi SW 12.7 mph - N/A   Clear
6:55 AM 50.0 °F - 24.8 °F 37% 30.17 in 10.0 mi WSW 9.2 mph - N/A   Scattered Clouds
7:15 AM 51.8 °F - 24.8 °F 35% 30.17 in 10.0 mi WSW 6.9 mph - N/A   Mostly Cloudy
7:35 AM 51.8 °F - 24.8 °F 35% 30.17 in 10.0 mi WSW 9.2 mph - N/A   Mostly Cloudy
7:55 AM 51.8 °F - 24.8 °F 35% 30.17 in 10.0 mi WSW 9.2 mph - N/A   Mostly Cloudy
8:15 AM 51.8 °F - 24.8 °F 35% 30.17 in 10.0 mi SW 10.4 mph - N/A   Overcast
8:35 AM 51.8 °F - 24.8 °F 35% 30.16 in 10.0 mi WSW 10.4 mph - N/A   Overcast
8:55 AM 53.6 °F - 26.6 °F 35% 30.16 in 10.0 mi Calm Calm - N/A   Overcast
9:15 AM 53.6 °F - 26.6 °F 35% 30.15 in 10.0 mi ENE 6.9 mph - N/A   Overcast
9:35 AM 53.6 °F - 26.6 °F 35% 30.16 in 10.0 mi East 4.6 mph - N/A   Scattered Clouds
9:55 AM 53.6 °F - 28.4 °F 38% 30.16 in 10.0 mi North 5.8 mph - N/A   Partly Cloudy
10:15 AM 53.6 °F - 28.4 °F 38% 30.16 in 10.0 mi NNE 6.9 mph - N/A   Clear
10:35 AM 53.6 °F - 28.4 °F 38% 30.15 in 10.0 mi NE 4.6 mph - N/A   Partly Cloudy
10:55 AM 53.6 °F - 28.4 °F 38% 30.14 in 10.0 mi East 3.5 mph - N/A   Clear
11:15 AM 53.6 °F - 28.4 °F 38% 30.13 in 10.0 mi Calm Calm - N/A   Partly Cloudy
11:35 AM 53.6 °F - 30.2 °F 41% 30.12 in 10.0 mi East 3.5 mph - N/A   Scattered Clouds
12:15 PM 53.6 °F - 28.4 °F 38% 30.10 in 10.0 mi ENE 8.1 mph - N/A   Overcast
12:35 PM 53.6 °F - 28.4 °F 38% 30.09 in 10.0 mi ENE 8.1 mph - N/A   Overcast
12:55 PM 55.4 °F - 30.2 °F 38% 30.09 in 10.0 mi WSW 10.4 mph 20.7 mph N/A   Overcast
1:15 PM 57.2 °F - 32.0 °F 38% 30.08 in 10.0 mi WSW 23.0 mph 31.1 mph N/A   Overcast
1:35 PM 55.4 °F - 30.2 °F 38% 30.07 in 10.0 mi West 18.4 mph 33.4 mph N/A   Overcast
1:55 PM 53.6 °F - 32.0 °F 44% 30.07 in 10.0 mi WSW 19.6 mph 27.6 mph N/A   Mostly Cloudy
2:15 PM 53.6 °F - 33.8 °F 47% 30.07 in 10.0 mi WSW 19.6 mph 32.2 mph N/A   Overcast
2:35 PM 51.8 °F - 33.8 °F 50% 30.07 in 10.0 mi WSW 19.6 mph 32.2 mph N/A   Overcast
2:55 PM 51.8 °F - 33.8 °F 50% 30.07 in 10.0 mi West 19.6 mph 28.8 mph N/A   Overcast
3:15 PM 51.8 °F - 32.0 °F 47% 30.07 in 10.0 mi WSW 18.4 mph 27.6 mph N/A   Overcast
3:35 PM 50.0 °F - 30.2 °F 47% 30.07 in 10.0 mi WSW 13.8 mph 27.6 mph N/A   Mostly Cloudy
3:56 PM 50.0 °F - 32.0 °F 50% 30.07 in 10.0 mi WSW 15.0 mph 24.2 mph N/A   Scattered Clouds
4:35 PM 48.2 °F - 32.0 °F 54% 30.07 in 10.0 mi WSW 15.0 mph 25.3 mph N/A   Scattered Clouds
4:55 PM 48.2 °F - 30.2 °F 50% 30.07 in 10.0 mi West 13.8 mph 23.0 mph N/A   Clear
5:15 PM 48.2 °F - 30.2 °F 50% 30.09 in 10.0 mi West 11.5 mph 20.7 mph N/A   Clear
5:35 PM 48.2 °F - 28.4 °F 46% 30.09 in 10.0 mi WSW 8.1 mph - N/A   Clear
5:55 PM 48.2 °F - 28.4 °F 46% 30.10 in 10.0 mi West 6.9 mph - N/A   Clear
6:15 PM 46.4 °F 42.4 °F 28.4 °F 50% 30.10 in 10.0 mi West 8.1 mph - N/A   Clear
6:35 PM 42.8 °F 38.0 °F 24.8 °F 49% 30.10 in 10.0 mi NNE 8.1 mph - N/A   Clear
6:55 PM 44.6 °F 43.1 °F 26.6 °F 49% 30.10 in 10.0 mi NW 3.5 mph - N/A   Clear
7:15 PM 42.8 °F - 24.8 °F 49% 30.10 in 10.0 mi Calm Calm - N/A   Clear
7:35 PM 44.6 °F 40.7 °F 26.6 °F 49% 30.11 in 10.0 mi West 6.9 mph - N/A   Clear
8:15 PM 44.6 °F 40.7 °F 24.8 °F 46% 30.10 in 10.0 mi WSW 6.9 mph - N/A   Scattered Clouds
8:35 PM 42.8 °F - 24.8 °F 49% 30.10 in 10.0 mi Calm Calm - N/A   Overcast
8:55 PM 42.8 °F 39.3 °F 24.8 °F 49% 30.11 in 10.0 mi North 5.8 mph - N/A   Mostly Cloudy
9:15 PM 42.8 °F 40.1 °F 26.6 °F 53% 30.14 in 10.0 mi NNE 4.6 mph - N/A   Overcast
9:35 PM 41.0 °F - 26.6 °F 57% 30.14 in 10.0 mi Calm Calm - N/A   Overcast
9:55 PM 39.2 °F 37.0 °F 26.6 °F 61% 30.14 in 10.0 mi NNW 3.5 mph - N/A   Scattered Clouds
10:15 PM 39.2 °F 35.9 °F 26.6 °F 61% 30.14 in 10.0 mi NNE 4.6 mph - N/A   Clear
10:35 PM 39.2 °F 37.0 °F 26.6 °F 61% 30.13 in 10.0 mi SW 3.5 mph - N/A   Clear
10:55 PM 37.4 °F - 26.6 °F 65% 30.12 in 10.0 mi Calm Calm - N/A   Clear
11:15 PM 39.2 °F - 26.6 °F 61% 30.13 in 10.0 mi Calm Calm - N/A   Clear
11:35 PM 35.6 °F - 24.8 °F 65% 30.13 in 10.0 mi Calm Calm - N/A   Clear
11:55 PM 35.6 °F 32.8 °F 24.8 °F 65% 30.12 in 10.0 mi SW 3.5 mph - N/A   Clear